Time,TemperatureF,DewpointF,PressureIn,WindDirection,WindDirectionDegrees,WindSpeedMPH,WindSpeedGustMPH,Humidity,HourlyPrecipIn,Conditions,Clouds,dailyrainin,SoftwareType,DateUTC
2013-02-21 00:02:00,23.5,9.2,26.51,NW,315,11.4,16.5,54,0.00,,,0.00,WUHU216HW,2013-02-21 05:02:00,
2013-02-21 00:07:00,23.5,9.6,26.51,WNW,293,15.6,15.6,55,0.00,,,0.00,WUHU216HW,2013-02-21 05:07:00,
2013-02-21 00:12:00,23.5,9.6,26.51,WNW,293,10.0,15.6,55,0.00,,,0.00,WUHU216HW,2013-02-21 05:12:00,
2013-02-21 00:17:00,23.5,9.6,26.51,NW,315,17.0,19.4,55,0.00,,,0.00,WUHU216HW,2013-02-21 05:17:00,
2013-02-21 00:22:00,23.3,9.4,26.51,NW,315,19.6,19.6,55,0.00,,,0.00,WUHU216HW,2013-02-21 05:22:00,
2013-02-21 00:27:00,23.3,9.4,26.51,WNW,293,14.9,19.6,55,0.00,,,0.00,WUHU216HW,2013-02-21 05:27:00,
2013-02-21 00:32:00,23.1,9.3,26.51,NNW,338,14.7,14.9,55,0.00,,,0.00,WUHU216HW,2013-02-21 05:32:00,
2013-02-21 00:37:00,23.1,9.3,26.51,NNW,338,11.6,14.7,55,0.00,,,0.00,WUHU216HW,2013-02-21 05:37:00,
2013-02-21 00:42:00,23.0,9.1,26.51,WNW,293,10.5,14.7,55,0.00,,,0.00,WUHU216HW,2013-02-21 05:42:00,
2013-02-21 00:47:00,23.0,9.5,26.50,NW,315,12.0,13.1,56,0.00,,,0.00,WUHU216HW,2013-02-21 05:47:00,
2013-02-21 00:52:00,22.8,9.3,26.50,NW,315,10.9,12.3,56,0.00,,,0.00,WUHU216HW,2013-02-21 05:52:00,
2013-02-21 00:57:00,22.8,9.3,26.50,NW,315,8.2,12.0,56,0.00,,,0.00,WUHU216HW,2013-02-21 05:57:00,
2013-02-21 01:02:00,22.8,9.3,26.49,WNW,293,10.9,12.9,56,0.00,,,0.00,WUHU216HW,2013-02-21 06:02:00,
2013-02-21 01:07:00,22.8,9.3,26.49,NW,315,13.6,13.6,56,0.00,,,0.00,WUHU216HW,2013-02-21 06:07:00,
2013-02-21 01:12:00,22.6,9.1,26.49,NW,315,9.3,14.5,56,0.00,,,0.00,WUHU216HW,2013-02-21 06:12:00,
2013-02-21 01:17:00,22.6,9.5,26.50,NW,315,13.4,14.5,57,0.00,,,0.00,WUHU216HW,2013-02-21 06:17:00,
2013-02-21 01:22:00,22.6,9.5,26.49,NW,315,11.6,13.4,57,0.00,,,0.00,WUHU216HW,2013-02-21 06:22:00,
2013-02-21 01:27:00,22.6,9.5,26.49,NNW,338,12.7,13.6,57,0.00,,,0.00,WUHU216HW,2013-02-21 06:27:00,
2013-02-21 01:32:00,22.4,9.4,26.49,NW,315,11.6,13.6,57,0.00,,,0.00,WUHU216HW,2013-02-21 06:32:00,
2013-02-21 01:37:00,22.4,9.4,26.50,WNW,293,15.8,15.8,57,0.00,,,0.00,WUHU216HW,2013-02-21 06:37:00,
2013-02-21 01:42:00,22.2,9.2,26.50,NW,315,11.6,15.8,57,0.00,,,0.00,WUHU216HW,2013-02-21 06:42:00,
2013-02-21 01:47:00,22.2,9.2,26.50,NW,315,10.0,15.8,57,0.00,,,0.00,WUHU216HW,2013-02-21 06:47:00,
2013-02-21 01:53:00,22.4,9.4,26.51,NW,315,13.4,18.3,57,0.00,,,0.00,WUHU216HW,2013-02-21 06:53:00,
2013-02-21 01:58:00,22.6,9.5,26.51,NW,315,9.3,19.4,57,0.00,,,0.00,WUHU216HW,2013-02-21 06:58:00,
2013-02-21 02:03:00,22.6,9.5,26.51,WNW,293,12.5,19.4,57,0.00,,,0.00,WUHU216HW,2013-02-21 07:03:00,
2013-02-21 02:08:00,22.6,9.5,26.51,NW,315,10.5,12.5,57,0.00,,,0.00,WUHU216HW,2013-02-21 07:08:00,
2013-02-21 02:13:00,22.6,9.5,26.51,NW,315,15.8,15.8,57,0.00,,,0.00,WUHU216HW,2013-02-21 07:13:00,
2013-02-21 02:18:00,22.6,9.5,26.51,West,270,13.1,15.8,57,0.00,,,0.00,WUHU216HW,2013-02-21 07:18:00,
2013-02-21 02:23:00,22.6,9.5,26.51,NNW,338,11.6,15.8,57,0.00,,,0.00,WUHU216HW,2013-02-21 07:23:00,
2013-02-21 02:28:00,22.6,9.5,26.51,WNW,293,15.2,15.2,57,0.00,,,0.00,WUHU216HW,2013-02-21 07:28:00,
2013-02-21 02:33:00,22.6,9.5,26.51,NW,315,17.6,17.6,57,0.00,,,0.00,WUHU216HW,2013-02-21 07:33:00,
2013-02-21 02:38:00,22.4,9.4,26.51,NW,315,8.0,17.6,57,0.00,,,0.00,WUHU216HW,2013-02-21 07:38:00,
2013-02-21 02:43:00,22.4,9.4,26.51,WNW,293,10.7,14.0,57,0.00,,,0.00,WUHU216HW,2013-02-21 07:43:00,
2013-02-21 02:48:00,22.2,9.2,26.51,NNW,338,10.2,10.7,57,0.00,,,0.00,WUHU216HW,2013-02-21 07:48:00,
2013-02-21 02:53:00,22.2,9.6,26.51,WNW,293,16.1,16.1,58,0.00,,,0.00,WUHU216HW,2013-02-21 07:53:00,
2013-02-21 02:58:00,22.1,9.5,26.51,NW,315,10.2,16.1,58,0.00,,,0.00,WUHU216HW,2013-02-21 07:58:00,
2013-02-21 03:03:00,21.9,9.3,26.51,NW,315,9.3,16.1,58,0.00,,,0.00,WUHU216HW,2013-02-21 08:03:00,
2013-02-21 03:08:00,21.9,9.3,26.51,WNW,293,10.2,17.8,58,0.00,,,0.00,WUHU216HW,2013-02-21 08:08:00,
2013-02-21 03:13:00,21.9,9.3,26.51,NW,315,9.3,17.8,58,0.00,,,0.00,WUHU216HW,2013-02-21 08:13:00,
2013-02-21 03:18:00,21.7,9.1,26.51,WNW,293,9.1,10.2,58,0.00,,,0.00,WUHU216HW,2013-02-21 08:18:00,
2013-02-21 03:23:00,21.7,8.9,26.51,NW,315,11.6,12.9,58,0.00,,,0.00,WUHU216HW,2013-02-21 08:23:00,
2013-02-21 03:28:00,21.5,9.4,26.51,West,270,10.9,12.9,59,0.00,,,0.00,WUHU216HW,2013-02-21 08:28:00,
2013-02-21 03:33:00,21.5,9.4,26.51,NW,315,11.6,14.0,59,0.00,,,0.00,WUHU216HW,2013-02-21 08:33:00,
2013-02-21 03:38:00,21.3,9.2,26.51,NW,315,10.2,14.0,59,0.00,,,0.00,WUHU216HW,2013-02-21 08:38:00,
2013-02-21 03:43:00,21.3,9.2,26.51,NNW,338,14.7,14.7,59,0.00,,,0.00,WUHU216HW,2013-02-21 08:43:00,
2013-02-21 03:48:00,21.3,9.2,26.51,NW,315,10.2,14.7,59,0.00,,,0.00,WUHU216HW,2013-02-21 08:48:00,
2013-02-21 03:53:00,21.3,9.2,26.51,NW,315,10.5,14.7,59,0.00,,,0.00,WUHU216HW,2013-02-21 08:53:00,
2013-02-21 03:58:00,21.3,9.2,26.51,WNW,293,12.7,12.7,59,0.00,,,0.00,WUHU216HW,2013-02-21 08:58:00,
2013-02-21 04:03:00,21.3,9.2,26.51,NNW,338,9.3,12.7,59,0.00,,,0.00,WUHU216HW,2013-02-21 09:03:00,
2013-02-21 04:08:00,21.3,9.2,26.51,NW,315,9.3,12.7,59,0.00,,,0.00,WUHU216HW,2013-02-21 09:08:00,
2013-02-21 04:13:00,21.3,9.2,26.51,NW,315,10.0,15.2,59,0.00,,,0.00,WUHU216HW,2013-02-21 09:13:00,
2013-02-21 04:18:00,21.3,9.2,26.51,WNW,293,12.3,15.2,59,0.00,,,0.00,WUHU216HW,2013-02-21 09:18:00,
2013-02-21 04:23:00,21.3,9.2,26.51,WNW,293,15.8,15.8,59,0.00,,,0.00,WUHU216HW,2013-02-21 09:23:00,
2013-02-21 04:28:00,21.3,9.2,26.51,WNW,293,9.8,16.5,59,0.00,,,0.00,WUHU216HW,2013-02-21 09:28:00,
2013-02-21 04:33:00,21.3,9.2,26.51,WNW,293,11.1,16.5,59,0.00,,,0.00,WUHU216HW,2013-02-21 09:33:00,
2013-02-21 04:38:00,21.3,9.2,26.51,WNW,293,15.8,15.8,59,0.00,,,0.00,WUHU216HW,2013-02-21 09:38:00,
2013-02-21 04:43:00,21.3,9.2,26.51,NW,315,9.1,15.8,59,0.00,,,0.00,WUHU216HW,2013-02-21 09:43:00,
2013-02-21 04:48:00,21.3,9.2,26.51,NNW,338,8.5,14.5,59,0.00,,,0.00,WUHU216HW,2013-02-21 09:48:00,
2013-02-21 04:53:00,21.3,9.6,26.52,WNW,293,13.6,14.5,60,0.00,,,0.00,WUHU216HW,2013-02-21 09:53:00,
2013-02-21 04:58:00,21.3,9.6,26.52,WNW,293,15.6,15.6,60,0.00,,,0.00,WUHU216HW,2013-02-21 09:58:00,
2013-02-21 05:03:00,21.3,9.2,26.53,NNW,338,10.5,15.6,59,0.00,,,0.00,WUHU216HW,2013-02-21 10:03:00,
2013-02-21 05:08:00,21.3,9.2,26.53,NW,315,9.1,10.5,59,0.00,,,0.00,WUHU216HW,2013-02-21 10:08:00,
2013-02-21 05:13:00,21.3,9.2,26.53,WNW,293,8.7,10.5,59,0.00,,,0.00,WUHU216HW,2013-02-21 10:13:00,
2013-02-21 05:18:00,21.3,9.2,26.53,NW,315,6.2,8.7,59,0.00,,,0.00,WUHU216HW,2013-02-21 10:18:00,
2013-02-21 05:23:00,21.3,9.2,26.53,NW,315,9.3,9.3,59,0.00,,,0.00,WUHU216HW,2013-02-21 10:23:00,
2013-02-21 05:28:00,21.3,9.2,26.53,NW,315,4.0,9.3,59,0.00,,,0.00,WUHU216HW,2013-02-21 10:28:00,
2013-02-21 05:33:00,21.3,8.8,26.53,NW,315,6.4,8.9,58,0.00,,,0.00,WUHU216HW,2013-02-21 10:33:00,
2013-02-21 05:38:00,21.3,8.8,26.54,NNW,338,12.0,12.0,58,0.00,,,0.00,WUHU216HW,2013-02-21 10:38:00,
2013-02-21 05:43:00,21.3,8.8,26.54,NNW,338,6.0,12.0,58,0.00,,,0.00,WUHU216HW,2013-02-21 10:43:00,
2013-02-21 05:48:00,21.3,8.8,26.54,NW,315,10.7,10.7,58,0.00,,,0.00,WUHU216HW,2013-02-21 10:48:00,
2013-02-21 05:53:00,21.3,8.8,26.54,NNW,338,7.1,10.7,58,0.00,,,0.00,WUHU216HW,2013-02-21 10:53:00,
2013-02-21 05:58:00,21.3,8.8,26.54,NW,315,7.3,10.7,58,0.00,,,0.00,WUHU216HW,2013-02-21 10:58:00,
2013-02-21 06:04:00,21.3,8.8,26.54,NW,315,9.6,9.6,58,0.00,,,0.00,WUHU216HW,2013-02-21 11:04:00,
2013-02-21 06:09:00,21.3,8.8,26.54,WNW,293,7.1,9.6,58,0.00,,,0.00,WUHU216HW,2013-02-21 11:09:00,
2013-02-21 06:14:00,21.3,8.8,26.55,NW,315,6.9,9.6,58,0.00,,,0.00,WUHU216HW,2013-02-21 11:14:00,
2013-02-21 06:19:00,21.3,8.8,26.55,NNW,338,6.7,8.9,58,0.00,,,0.00,WUHU216HW,2013-02-21 11:19:00,
2013-02-21 06:24:00,21.3,8.8,26.55,NW,315,6.7,8.9,58,0.00,,,0.00,WUHU216HW,2013-02-21 11:24:00,
2013-02-21 06:29:00,21.3,8.8,26.55,NNW,338,7.6,7.6,58,0.00,,,0.00,WUHU216HW,2013-02-21 11:29:00,
2013-02-21 06:34:00,21.3,8.8,26.55,NW,315,9.1,9.1,58,0.00,,,0.00,WUHU216HW,2013-02-21 11:34:00,
2013-02-21 06:39:00,21.3,8.8,26.55,WNW,293,5.5,9.1,58,0.00,,,0.00,WUHU216HW,2013-02-21 11:39:00,
2013-02-21 06:44:00,21.2,8.6,26.55,NW,315,6.9,9.1,58,0.00,,,0.00,WUHU216HW,2013-02-21 11:44:00,
2013-02-21 06:49:00,21.3,8.8,26.55,NW,315,6.2,7.3,58,0.00,,,0.00,WUHU216HW,2013-02-21 11:49:00,
2013-02-21 06:54:00,21.3,8.8,26.56,NW,315,6.7,7.3,58,0.00,,,0.00,WUHU216HW,2013-02-21 11:54:00,
2013-02-21 06:59:00,21.3,8.8,26.55,NW,315,9.1,9.3,58,0.00,,,0.00,WUHU216HW,2013-02-21 11:59:00,
2013-02-21 07:04:00,21.3,8.4,26.56,WNW,293,6.2,9.3,57,0.00,,,0.00,WUHU216HW,2013-02-21 12:04:00,
2013-02-21 07:09:00,21.5,8.5,26.56,WNW,293,8.2,8.2,57,0.00,,,0.00,WUHU216HW,2013-02-21 12:09:00,
2013-02-21 07:14:00,21.7,8.7,26.56,WNW,293,5.3,8.2,57,0.00,,,0.00,WUHU216HW,2013-02-21 12:14:00,
2013-02-21 07:19:00,21.9,8.5,26.56,West,270,5.3,9.8,56,0.00,,,0.00,WUHU216HW,2013-02-21 12:19:00,
2013-02-21 07:24:00,22.1,8.2,26.56,West,270,6.4,9.8,55,0.00,,,0.00,WUHU216HW,2013-02-21 12:24:00,
2013-02-21 07:29:00,22.4,8.2,26.56,WNW,293,9.1,9.1,54,0.00,,,0.00,WUHU216HW,2013-02-21 12:29:00,
2013-02-21 07:34:00,22.8,8.5,26.56,WNW,293,5.3,9.1,54,0.00,,,0.00,WUHU216HW,2013-02-21 12:34:00,
2013-02-21 07:39:00,23.0,8.3,26.56,West,270,7.6,8.2,53,0.00,,,0.00,WUHU216HW,2013-02-21 12:39:00,
2013-02-21 07:44:00,23.3,8.6,26.56,WNW,293,1.3,7.6,53,0.00,,,0.00,WUHU216HW,2013-02-21 12:44:00,
2013-02-21 07:49:00,23.5,8.4,26.56,WNW,293,6.9,7.1,52,0.00,,,0.00,WUHU216HW,2013-02-21 12:49:00,
2013-02-21 07:54:00,23.7,8.2,26.57,West,270,7.8,7.8,51,0.00,,,0.00,WUHU216HW,2013-02-21 12:54:00,
2013-02-21 07:59:00,24.0,8.3,26.57,West,270,2.4,7.8,51,0.00,,,0.00,WUHU216HW,2013-02-21 12:59:00,
2013-02-21 08:04:00,24.4,8.4,26.57,WNW,293,7.1,7.1,50,0.00,,,0.00,WUHU216HW,2013-02-21 13:04:00,
2013-02-21 08:09:00,24.6,8.6,26.57,West,270,6.9,7.1,50,0.00,,,0.00,WUHU216HW,2013-02-21 13:09:00,
2013-02-21 08:14:00,24.9,8.1,26.57,WNW,293,3.8,7.1,49,0.00,,,0.00,WUHU216HW,2013-02-21 13:14:00,
2013-02-21 08:19:00,24.9,8.4,26.57,WNW,293,3.5,6.0,49,0.00,,,0.00,WUHU216HW,2013-02-21 13:19:00,
2013-02-21 08:24:00,25.3,8.2,26.58,NW,315,3.5,5.1,48,0.00,,,0.00,WUHU216HW,2013-02-21 13:24:00,
2013-02-21 08:29:00,25.7,7.9,26.58,West,270,4.9,6.0,47,0.00,,,0.00,WUHU216HW,2013-02-21 13:29:00,
2013-02-21 08:34:00,25.8,8.2,26.59,West,270,6.7,7.8,47,0.00,,,0.00,WUHU216HW,2013-02-21 13:34:00,
2013-02-21 08:39:00,26.2,8.6,26.58,WNW,293,7.8,7.8,47,0.00,,,0.00,WUHU216HW,2013-02-21 13:39:00,
2013-02-21 08:44:00,26.4,8.7,26.58,WNW,293,8.5,8.5,47,0.00,,,0.00,WUHU216HW,2013-02-21 13:44:00,
2013-02-21 08:49:00,26.6,8.4,26.58,West,270,2.4,8.5,46,0.00,,,0.00,WUHU216HW,2013-02-21 13:49:00,
2013-02-21 08:54:00,27.1,8.9,26.58,West,270,7.1,8.5,46,0.00,,,0.00,WUHU216HW,2013-02-21 13:54:00,
2013-02-21 08:59:00,27.3,9.1,26.58,NW,315,6.9,7.8,46,0.00,,,0.00,WUHU216HW,2013-02-21 13:59:00,
2013-02-21 09:04:00,27.6,9.4,26.58,WNW,293,7.3,7.3,46,0.00,,,0.00,WUHU216HW,2013-02-21 14:04:00,
2013-02-21 09:09:00,28.2,9.5,26.58,WNW,293,9.1,9.1,45,0.00,,,0.00,WUHU216HW,2013-02-21 14:09:00,
2013-02-21 09:16:00,28.4,9.1,26.58,WNW,293,9.3,9.3,44,0.00,,,0.00,WUHU216HW,2013-02-21 14:16:00,
2013-02-21 09:22:00,29.1,9.8,26.58,NW,315,7.8,9.3,44,0.00,,,0.00,WUHU216HW,2013-02-21 14:22:00,
2013-02-21 09:29:00,29.4,9.9,26.58,West,270,0.0,7.8,44,0.00,,,0.00,WUHU216HW,2013-02-21 14:29:00,
2013-02-21 09:35:00,29.8,9.9,26.59,West,270,6.7,8.0,43,0.00,,,0.00,WUHU216HW,2013-02-21 14:35:00,
2013-02-21 09:42:00,30.3,9.9,26.58,West,270,4.4,8.0,42,0.00,,,0.00,WUHU216HW,2013-02-21 14:42:00,
2013-02-21 09:48:00,30.7,10.2,26.58,WNW,293,2.9,6.4,42,0.00,,,0.00,WUHU216HW,2013-02-21 14:48:00,
2013-02-21 09:54:00,31.2,10.7,26.58,WNW,293,9.6,9.6,42,0.00,,,0.00,WUHU216HW,2013-02-21 14:54:00,
2013-02-21 10:01:00,31.2,10.2,26.58,NW,315,7.8,9.6,41,0.00,,,0.00,WUHU216HW,2013-02-21 15:01:00,
2013-02-21 10:06:00,31.4,10.4,26.58,WNW,293,11.4,11.4,41,0.00,,,0.00,WUHU216HW,2013-02-21 15:06:00,
2013-02-21 10:11:00,31.6,10.5,26.58,West,270,2.9,11.4,41,0.00,,,0.00,WUHU216HW,2013-02-21 15:11:00,
2013-02-21 10:16:00,31.8,10.7,26.58,West,270,4.9,11.4,41,0.00,,,0.00,WUHU216HW,2013-02-21 15:16:00,
2013-02-21 10:21:00,32.3,10.7,26.58,WNW,293,3.1,7.8,40,0.00,,,0.00,WUHU216HW,2013-02-21 15:21:00,
2013-02-21 10:26:00,32.5,10.8,26.59,NW,315,2.4,7.8,40,0.00,,,0.00,WUHU216HW,2013-02-21 15:26:00,
2013-02-21 10:31:00,32.9,11.2,26.58,NW,315,3.1,7.6,40,0.00,,,0.00,WUHU216HW,2013-02-21 15:31:00,
2013-02-21 10:36:00,33.4,11.6,26.58,West,270,0.0,7.6,40,0.00,,,0.00,WUHU216HW,2013-02-21 15:36:00,
2013-02-21 10:41:00,33.6,11.8,26.58,WNW,293,6.0,6.0,40,0.00,,,0.00,WUHU216HW,2013-02-21 15:41:00,
2013-02-21 10:46:00,34.1,12.3,26.59,NW,315,9.8,9.8,40,0.00,,,0.00,WUHU216HW,2013-02-21 15:46:00,
2013-02-21 10:51:00,34.3,11.8,26.59,NW,315,7.3,9.8,39,0.00,,,0.00,WUHU216HW,2013-02-21 15:51:00,
2013-02-21 10:56:00,34.3,11.8,26.59,NW,315,4.6,9.8,39,0.00,,,0.00,WUHU216HW,2013-02-21 15:56:00,
2013-02-21 11:01:00,34.7,11.5,26.59,NW,315,6.9,6.9,38,0.00,,,0.00,WUHU216HW,2013-02-21 16:01:00,
2013-02-21 11:06:00,34.8,11.6,26.59,West,270,6.0,10.0,38,0.00,,,0.00,WUHU216HW,2013-02-21 16:06:00,
2013-02-21 11:11:00,35.6,12.3,26.59,NW,315,0.0,10.0,38,0.00,,,0.00,WUHU216HW,2013-02-21 16:11:00,
2013-02-21 11:16:00,36.1,12.8,26.59,West,270,0.0,5.8,38,0.00,,,0.00,WUHU216HW,2013-02-21 16:16:00,
2013-02-21 11:21:00,36.5,13.1,26.59,WNW,293,6.7,6.7,38,0.00,,,0.00,WUHU216HW,2013-02-21 16:21:00,
2013-02-21 11:26:00,37.2,13.1,26.59,West,270,4.4,6.7,37,0.00,,,0.00,WUHU216HW,2013-02-21 16:26:00,
2013-02-21 11:31:00,37.5,13.4,26.59,NW,315,6.7,6.7,37,0.00,,,0.00,WUHU216HW,2013-02-21 16:31:00,
2013-02-21 11:36:00,37.7,12.9,26.59,NW,315,7.6,7.6,36,0.00,,,0.00,WUHU216HW,2013-02-21 16:36:00,
2013-02-21 11:41:00,38.1,13.1,26.58,NNW,338,0.0,7.6,36,0.00,,,0.00,WUHU216HW,2013-02-21 16:41:00,
2013-02-21 11:46:00,38.3,13.4,26.58,WNW,293,0.0,3.8,36,0.00,,,0.00,WUHU216HW,2013-02-21 16:46:00,
2013-02-21 11:51:00,38.4,13.6,26.58,NNW,338,0.0,3.1,36,0.00,,,0.00,WUHU216HW,2013-02-21 16:51:00,
2013-02-21 11:56:00,38.8,13.9,26.58,NW,315,4.9,6.2,36,0.00,,,0.00,WUHU216HW,2013-02-21 16:56:00,
2013-02-21 12:01:00,39.3,13.8,26.58,NW,315,6.9,6.9,35,0.00,,,0.00,WUHU216HW,2013-02-21 17:01:00,
2013-02-21 12:06:00,39.3,13.8,26.57,WSW,248,7.3,7.3,35,0.00,,,0.00,WUHU216HW,2013-02-21 17:06:00,
2013-02-21 12:11:00,39.9,13.6,26.57,WNW,293,2.2,9.8,34,0.00,,,0.00,WUHU216HW,2013-02-21 17:11:00,
2013-02-21 12:16:00,40.1,13.8,26.57,NW,315,4.6,9.8,34,0.00,,,0.00,WUHU216HW,2013-02-21 17:16:00,
2013-02-21 12:21:00,40.2,13.3,26.56,NNW,338,6.2,6.2,33,0.00,,,0.00,WUHU216HW,2013-02-21 17:21:00,
2013-02-21 12:27:00,40.6,13.6,26.57,WNW,293,6.9,10.2,33,0.00,,,0.00,WUHU216HW,2013-02-21 17:27:00,
2013-02-21 12:32:00,40.8,13.8,26.56,NW,315,7.3,10.2,33,0.00,,,0.00,WUHU216HW,2013-02-21 17:32:00,
2013-02-21 12:37:00,41.5,14.3,26.56,West,270,0.0,7.3,33,0.00,,,0.00,WUHU216HW,2013-02-21 17:37:00,
2013-02-21 12:42:00,42.0,14.1,26.56,NW,315,0.0,7.3,32,0.00,,,0.00,WUHU216HW,2013-02-21 17:42:00,
2013-02-21 12:47:00,42.4,14.4,26.56,NW,315,0.0,4.9,32,0.00,,,0.00,WUHU216HW,2013-02-21 17:47:00,
2013-02-21 12:52:00,42.4,13.8,26.56,NW,315,3.8,4.0,31,0.00,,,0.00,WUHU216HW,2013-02-21 17:52:00,
2013-02-21 12:57:00,42.6,13.9,26.55,NW,315,4.6,4.6,31,0.00,,,0.00,WUHU216HW,2013-02-21 17:57:00,
2013-02-21 13:02:00,42.9,14.2,26.55,West,270,0.0,7.1,31,0.00,,,0.00,WUHU216HW,2013-02-21 18:02:00,
2013-02-21 13:07:00,43.3,14.6,26.54,NW,315,0.0,7.1,31,0.00,,,0.00,WUHU216HW,2013-02-21 18:07:00,
2013-02-21 13:12:00,43.7,14.2,26.54,WNW,293,0.0,5.1,30,0.00,,,0.00,WUHU216HW,2013-02-21 18:12:00,
2013-02-21 13:17:00,43.7,14.2,26.54,West,270,0.0,5.5,30,0.00,,,0.00,WUHU216HW,2013-02-21 18:17:00,
2013-02-21 13:22:00,44.2,14.7,26.54,NW,315,7.6,7.6,30,0.00,,,0.00,WUHU216HW,2013-02-21 18:22:00,
2013-02-21 13:27:00,44.4,14.9,26.54,WNW,293,0.0,7.6,30,0.00,,,0.00,WUHU216HW,2013-02-21 18:27:00,
2013-02-21 13:32:00,44.6,15.0,26.54,WNW,293,0.0,5.1,30,0.00,,,0.00,WUHU216HW,2013-02-21 18:32:00,
2013-02-21 13:37:00,44.9,15.4,26.54,West,270,2.4,5.1,30,0.00,,,0.00,WUHU216HW,2013-02-21 18:37:00,
2013-02-21 13:42:00,45.5,14.9,26.54,West,270,0.0,2.4,29,0.00,,,0.00,WUHU216HW,2013-02-21 18:42:00,
2013-02-21 13:47:00,46.0,15.4,26.54,WSW,248,0.0,2.0,29,0.00,,,0.00,WUHU216HW,2013-02-21 18:47:00,
2013-02-21 13:52:00,46.2,15.6,26.53,West,270,0.0,0.0,29,0.00,,,0.00,WUHU216HW,2013-02-21 18:52:00,
2013-02-21 13:57:00,46.5,15.0,26.53,West,270,2.4,3.5,28,0.00,,,0.00,WUHU216HW,2013-02-21 18:57:00,
2013-02-21 14:02:00,46.7,15.1,26.53,West,270,0.0,3.5,28,0.00,,,0.00,WUHU216HW,2013-02-21 19:02:00,
2013-02-21 14:08:00,46.9,15.3,26.52,NW,315,0.8,5.1,28,0.00,,,0.00,WUHU216HW,2013-02-21 19:08:00,
2013-02-21 14:13:00,46.9,15.3,26.52,West,270,0.0,5.1,28,0.00,,,0.00,WUHU216HW,2013-02-21 19:13:00,
2013-02-21 14:18:00,47.1,14.5,26.52,NW,315,0.0,6.0,27,0.00,,,0.00,WUHU216HW,2013-02-21 19:18:00,
2013-02-21 14:23:00,47.1,14.5,26.52,NW,315,4.2,6.0,27,0.00,,,0.00,WUHU216HW,2013-02-21 19:23:00,
2013-02-21 14:28:00,47.1,13.6,26.52,WNW,293,0.0,5.1,26,0.00,,,0.00,WUHU216HW,2013-02-21 19:28:00,
2013-02-21 14:33:00,47.1,12.8,26.53,NW,315,4.2,9.6,26,0.00,,,0.00,WUHU216HW,2013-02-21 19:33:00,
2013-02-21 14:38:00,47.3,13.8,26.53,WSW,248,8.0,9.6,26,0.00,,,0.00,WUHU216HW,2013-02-21 19:38:00,
2013-02-21 14:43:00,47.3,12.8,26.53,WSW,248,7.8,8.0,25,0.00,,,0.00,WUHU216HW,2013-02-21 19:43:00,
2013-02-21 14:48:00,47.6,13.1,26.53,WSW,248,1.1,8.0,25,0.00,,,0.00,WUHU216HW,2013-02-21 19:48:00,
2013-02-21 14:53:00,47.8,14.2,26.53,WSW,248,6.2,7.8,26,0.00,,,0.00,WUHU216HW,2013-02-21 19:53:00,
2013-02-21 14:58:00,48.0,13.4,26.53,WSW,248,4.4,6.4,25,0.00,,,0.00,WUHU216HW,2013-02-21 19:58:00,
2013-02-21 15:03:00,48.2,13.6,26.53,NW,315,8.0,11.1,25,0.00,,,0.00,WUHU216HW,2013-02-21 20:03:00,
2013-02-21 15:08:00,48.3,13.7,26.53,NW,315,5.5,11.1,25,0.00,,,0.00,WUHU216HW,2013-02-21 20:08:00,
2013-02-21 15:13:00,48.3,13.7,26.53,West,270,0.0,8.5,25,0.00,,,0.00,WUHU216HW,2013-02-21 20:13:00,
2013-02-21 15:18:00,48.3,13.7,26.53,WNW,293,4.6,5.5,25,0.00,,,0.00,WUHU216HW,2013-02-21 20:18:00,
2013-02-21 15:23:00,48.5,13.9,26.53,West,270,0.0,4.6,25,0.00,,,0.00,WUHU216HW,2013-02-21 20:23:00,
2013-02-21 15:28:00,48.5,13.9,26.53,West,270,0.0,4.6,25,0.00,,,0.00,WUHU216HW,2013-02-21 20:28:00,
2013-02-21 15:33:00,48.7,13.1,26.54,WNW,293,2.6,2.6,24,0.00,,,0.00,WUHU216HW,2013-02-21 20:33:00,
2013-02-21 15:38:00,48.9,13.3,26.54,WNW,293,0.0,2.6,24,0.00,,,0.00,WUHU216HW,2013-02-21 20:38:00,
2013-02-21 15:43:00,49.1,13.4,26.53,NNW,338,0.0,7.6,24,0.00,,,0.00,WUHU216HW,2013-02-21 20:43:00,
2013-02-21 15:48:00,49.1,12.5,26.53,West,270,3.3,12.7,23,0.00,,,0.00,WUHU216HW,2013-02-21 20:48:00,
2013-02-21 15:53:00,49.2,12.7,26.53,WNW,293,4.9,12.7,23,0.00,,,0.00,WUHU216HW,2013-02-21 20:53:00,
2013-02-21 15:58:00,49.1,12.5,26.53,NW,315,1.1,5.3,23,0.00,,,0.00,WUHU216HW,2013-02-21 20:58:00,
2013-02-21 16:03:00,49.1,12.5,26.53,NW,315,4.4,6.2,23,0.00,,,0.00,WUHU216HW,2013-02-21 21:03:00,
2013-02-21 16:08:00,49.1,12.5,26.53,NW,315,0.0,6.2,23,0.00,,,0.00,WUHU216HW,2013-02-21 21:08:00,
2013-02-21 16:13:00,49.1,12.5,26.53,NW,315,3.1,6.0,23,0.00,,,0.00,WUHU216HW,2013-02-21 21:13:00,
2013-02-21 16:18:00,49.2,12.7,26.53,WNW,293,7.1,7.1,23,0.00,,,0.00,WUHU216HW,2013-02-21 21:18:00,
2013-02-21 16:23:00,49.2,11.7,26.54,NNW,338,5.8,7.1,22,0.00,,,0.00,WUHU216HW,2013-02-21 21:23:00,
2013-02-21 16:28:00,49.2,11.7,26.54,WNW,293,0.0,6.9,22,0.00,,,0.00,WUHU216HW,2013-02-21 21:28:00,
2013-02-21 16:33:00,49.2,12.7,26.54,North,0,0.0,5.8,23,0.00,,,0.00,WUHU216HW,2013-02-21 21:33:00,
2013-02-21 16:38:00,49.2,12.7,26.54,WNW,293,0.0,0.0,23,0.00,,,0.00,WUHU216HW,2013-02-21 21:38:00,
2013-02-21 16:43:00,49.1,11.6,26.54,WNW,293,0.0,0.0,22,0.00,,,0.00,WUHU216HW,2013-02-21 21:43:00,
2013-02-21 16:48:00,48.9,11.4,26.54,West,270,0.0,0.0,22,0.00,,,0.00,WUHU216HW,2013-02-21 21:48:00,
2013-02-21 16:53:00,48.9,11.4,26.54,West,270,0.0,0.0,22,0.00,,,0.00,WUHU216HW,2013-02-21 21:53:00,
2013-02-21 16:58:00,48.7,12.2,26.54,West,270,0.0,0.0,23,0.00,,,0.00,WUHU216HW,2013-02-21 21:58:00,
2013-02-21 17:03:00,48.7,12.2,26.54,SE,135,5.5,5.5,23,0.00,,,0.00,WUHU216HW,2013-02-21 22:03:00,
2013-02-21 17:08:00,48.7,13.1,26.55,SE,135,0.0,5.5,24,0.00,,,0.00,WUHU216HW,2013-02-21 22:08:00,
2013-02-21 17:13:00,48.5,13.9,26.54,SE,135,1.7,8.5,25,0.00,,,0.00,WUHU216HW,2013-02-21 22:13:00,
2013-02-21 17:18:00,48.3,13.7,26.54,SSE,158,0.0,8.5,25,0.00,,,0.00,WUHU216HW,2013-02-21 22:18:00,
2013-02-21 17:23:00,48.2,14.7,26.53,SSW,203,0.0,5.1,26,0.00,,,0.00,WUHU216HW,2013-02-21 22:23:00,
2013-02-21 17:29:00,48.0,15.3,26.53,SE,135,3.8,5.1,27,0.00,,,0.00,WUHU216HW,2013-02-21 22:29:00,
2013-02-21 17:34:00,47.8,15.1,26.53,South,180,7.3,7.3,27,0.00,,,0.00,WUHU216HW,2013-02-21 22:34:00,
2013-02-21 17:39:00,47.3,15.6,26.53,SE,135,4.0,8.0,28,0.00,,,0.00,WUHU216HW,2013-02-21 22:39:00,
2013-02-21 17:44:00,47.1,15.4,26.53,SE,135,5.5,8.0,28,0.00,,,0.00,WUHU216HW,2013-02-21 22:44:00,
2013-02-21 17:49:00,46.9,15.3,26.53,SSE,158,6.9,6.9,28,0.00,,,0.00,WUHU216HW,2013-02-21 22:49:00,
2013-02-21 17:54:00,46.5,15.9,26.54,SSE,158,6.2,8.5,29,0.00,,,0.00,WUHU216HW,2013-02-21 22:54:00,
2013-02-21 17:59:00,46.2,15.6,26.55,SSE,158,5.8,8.9,29,0.00,,,0.00,WUHU216HW,2013-02-21 22:59:00,
2013-02-21 18:04:00,46.0,15.4,26.55,SSE,158,5.8,8.9,29,0.00,,,0.00,WUHU216HW,2013-02-21 23:04:00,
2013-02-21 18:09:00,45.6,16.0,26.55,SE,135,7.1,7.8,30,0.00,,,0.00,WUHU216HW,2013-02-21 23:09:00,
2013-02-21 18:14:00,45.3,15.7,26.55,SE,135,9.8,9.8,30,0.00,,,0.00,WUHU216HW,2013-02-21 23:14:00,
2013-02-21 18:19:00,45.1,15.5,26.55,SSE,158,7.1,9.8,30,0.00,,,0.00,WUHU216HW,2013-02-21 23:19:00,
2013-02-21 18:24:00,44.9,15.9,26.56,SSE,158,8.5,12.5,31,0.00,,,0.00,WUHU216HW,2013-02-21 23:24:00,
2013-02-21 18:29:00,44.6,15.7,26.57,SSE,158,9.1,12.5,31,0.00,,,0.00,WUHU216HW,2013-02-21 23:29:00,
2013-02-21 18:34:00,44.4,15.5,26.56,SE,135,7.8,9.1,31,0.00,,,0.00,WUHU216HW,2013-02-21 23:34:00,
2013-02-21 18:39:00,44.2,15.4,26.56,SE,135,6.0,9.1,31,0.00,,,0.00,WUHU216HW,2013-02-21 23:39:00,
2013-02-21 18:44:00,43.8,15.0,26.56,East,90,8.9,9.8,31,0.00,,,0.00,WUHU216HW,2013-02-21 23:44:00,
2013-02-21 18:49:00,43.7,15.6,26.56,SE,135,9.8,9.8,32,0.00,,,0.00,WUHU216HW,2013-02-21 23:49:00,
2013-02-21 18:54:00,43.5,15.4,26.56,SE,135,8.2,9.8,32,0.00,,,0.00,WUHU216HW,2013-02-21 23:54:00,
2013-02-21 18:59:00,43.3,15.2,26.56,SSE,158,7.6,12.7,32,0.00,,,0.00,WUHU216HW,2013-02-21 23:59:00,
2013-02-21 19:04:00,43.1,15.1,26.56,SE,135,8.7,12.7,32,0.00,,,0.00,WUHU216HW,2013-02-22 00:04:00,
2013-02-21 19:09:00,42.9,14.9,26.56,SE,135,14.3,14.3,32,0.00,,,0.00,WUHU216HW,2013-02-22 00:09:00,
2013-02-21 19:14:00,42.8,15.4,26.56,SE,135,10.7,14.3,33,0.00,,,0.00,WUHU216HW,2013-02-22 00:14:00,
2013-02-21 19:19:00,42.6,15.2,26.56,SSE,158,11.1,14.3,33,0.00,,,0.00,WUHU216HW,2013-02-22 00:19:00,
2013-02-21 19:24:00,42.4,15.8,26.56,SSE,158,9.6,12.0,34,0.00,,,0.00,WUHU216HW,2013-02-22 00:24:00,
2013-02-21 19:29:00,42.0,15.5,26.56,SE,135,8.2,12.0,34,0.00,,,0.00,WUHU216HW,2013-02-22 00:29:00,
2013-02-21 19:34:00,42.0,15.5,26.56,SSE,158,4.6,10.9,34,0.00,,,0.00,WUHU216HW,2013-02-22 00:34:00,
2013-02-21 19:39:00,41.7,15.8,26.56,SE,135,8.7,10.9,35,0.00,,,0.00,WUHU216HW,2013-02-22 00:39:00,
2013-02-21 19:44:00,41.7,15.8,26.56,SSE,158,9.8,11.6,35,0.00,,,0.00,WUHU216HW,2013-02-22 00:44:00,
2013-02-21 19:49:00,41.5,15.7,26.55,SE,135,11.6,11.6,35,0.00,,,0.00,WUHU216HW,2013-02-22 00:49:00,
2013-02-21 19:54:00,41.3,16.2,26.56,SE,135,7.1,11.6,36,0.00,,,0.00,WUHU216HW,2013-02-22 00:54:00,
2013-02-21 19:59:00,41.1,16.0,26.56,SE,135,6.7,8.9,36,0.00,,,0.00,WUHU216HW,2013-02-22 00:59:00,
2013-02-21 20:04:00,41.1,16.0,26.56,SSE,158,9.1,9.1,36,0.00,,,0.00,WUHU216HW,2013-02-22 01:04:00,
2013-02-21 20:09:00,40.8,16.3,26.57,SSE,158,6.9,9.1,37,0.00,,,0.00,WUHU216HW,2013-02-22 01:09:00,
2013-02-21 20:14:00,40.8,16.3,26.56,SSE,158,8.9,9.1,37,0.00,,,0.00,WUHU216HW,2013-02-22 01:14:00,
2013-02-21 20:19:00,40.8,16.3,26.57,SE,135,11.1,11.1,37,0.00,,,0.00,WUHU216HW,2013-02-22 01:19:00,
2013-02-21 20:24:00,40.6,16.2,26.57,SSE,158,11.4,11.4,37,0.00,,,0.00,WUHU216HW,2013-02-22 01:24:00,
2013-02-21 20:29:00,40.6,16.2,26.57,SSE,158,6.9,11.4,37,0.00,,,0.00,WUHU216HW,2013-02-22 01:29:00,
2013-02-21 20:34:00,40.4,16.7,26.57,SE,135,7.1,7.1,38,0.00,,,0.00,WUHU216HW,2013-02-22 01:34:00,
2013-02-21 20:39:00,40.2,16.5,26.56,SE,135,9.1,9.1,38,0.00,,,0.00,WUHU216HW,2013-02-22 01:39:00,
2013-02-21 20:44:00,40.2,16.5,26.56,SSE,158,4.2,9.1,38,0.00,,,0.00,WUHU216HW,2013-02-22 01:44:00,
2013-02-21 20:49:00,40.1,16.3,26.57,SSE,158,7.8,10.5,38,0.00,,,0.00,WUHU216HW,2013-02-22 01:49:00,
2013-02-21 20:54:00,40.1,17.0,26.57,SSW,203,10.0,12.5,39,0.00,,,0.00,WUHU216HW,2013-02-22 01:54:00,
2013-02-21 20:59:00,39.9,16.8,26.57,SSE,158,9.6,12.5,39,0.00,,,0.00,WUHU216HW,2013-02-22 01:59:00,
2013-02-21 21:04:00,39.9,16.8,26.57,SE,135,12.7,12.7,39,0.00,,,0.00,WUHU216HW,2013-02-22 02:04:00,
2013-02-21 21:09:00,39.9,16.8,26.57,East,90,19.0,19.0,39,0.00,,,0.00,WUHU216HW,2013-02-22 02:09:00,
2013-02-21 21:14:00,39.7,16.7,26.58,SSE,158,11.4,19.0,39,0.00,,,0.00,WUHU216HW,2013-02-22 02:14:00,
2013-02-21 21:20:00,39.7,16.7,26.58,SSE,158,7.3,13.6,39,0.00,,,0.00,WUHU216HW,2013-02-22 02:20:00,
2013-02-21 21:25:00,39.7,16.7,26.57,SE,135,13.8,13.8,39,0.00,,,0.00,WUHU216HW,2013-02-22 02:25:00,
2013-02-21 21:30:00,39.7,16.7,26.57,SE,135,9.6,13.8,39,0.00,,,0.00,WUHU216HW,2013-02-22 02:30:00,
2013-02-21 21:35:00,39.5,17.2,26.57,SE,135,9.8,11.6,40,0.00,,,0.00,WUHU216HW,2013-02-22 02:35:00,
2013-02-21 21:40:00,39.5,17.2,26.57,SE,135,9.1,11.6,40,0.00,,,0.00,WUHU216HW,2013-02-22 02:40:00,
2013-02-21 21:45:00,39.3,17.0,26.57,SSE,158,5.1,12.9,40,0.00,,,0.00,WUHU216HW,2013-02-22 02:45:00,
2013-02-21 21:50:00,39.3,17.0,26.58,SE,135,8.9,12.9,40,0.00,,,0.00,WUHU216HW,2013-02-22 02:50:00,
2013-02-21 21:55:00,39.3,17.0,26.57,SSE,158,7.1,8.9,40,0.00,,,0.00,WUHU216HW,2013-02-22 02:55:00,
2013-02-21 22:00:00,39.3,17.0,26.58,SSE,158,6.4,8.9,40,0.00,,,0.00,WUHU216HW,2013-02-22 03:00:00,
2013-02-21 22:05:00,39.3,17.0,26.58,SE,135,7.3,8.0,40,0.00,,,0.00,WUHU216HW,2013-02-22 03:05:00,
2013-02-21 22:10:00,39.3,17.0,26.59,SSE,158,4.9,10.2,40,0.00,,,0.00,WUHU216HW,2013-02-22 03:10:00,
2013-02-21 22:15:00,39.3,17.0,26.60,SE,135,5.8,10.2,40,0.00,,,0.00,WUHU216HW,2013-02-22 03:15:00,
2013-02-21 22:20:00,39.3,17.5,26.61,SE,135,2.0,9.6,41,0.00,,,0.00,WUHU216HW,2013-02-22 03:20:00,
2013-02-21 22:25:00,39.3,18.0,26.61,SSE,158,6.7,9.6,42,0.00,,,0.00,WUHU216HW,2013-02-22 03:25:00,
2013-02-21 22:30:00,39.0,17.7,26.61,SSE,158,9.6,9.6,42,0.00,,,0.00,WUHU216HW,2013-02-22 03:30:00,
2013-02-21 22:35:00,39.0,18.2,26.62,SSE,158,10.2,10.2,43,0.00,,,0.00,WUHU216HW,2013-02-22 03:35:00,
2013-02-21 22:40:00,38.8,18.1,26.62,ESE,113,6.9,10.2,43,0.00,,,0.00,WUHU216HW,2013-02-22 03:40:00,
2013-02-21 22:45:00,38.8,18.1,26.62,SSE,158,6.7,12.0,43,0.00,,,0.00,WUHU216HW,2013-02-22 03:45:00,
2013-02-21 22:50:00,38.8,18.1,26.62,SSE,158,7.8,12.0,43,0.00,,,0.00,WUHU216HW,2013-02-22 03:50:00,
2013-02-21 22:55:00,38.4,18.3,26.62,SE,135,6.0,8.5,44,0.00,,,0.00,WUHU216HW,2013-02-22 03:55:00,
2013-02-21 23:00:00,38.4,18.8,26.62,SE,135,13.4,13.4,44,0.00,,,0.00,WUHU216HW,2013-02-22 04:00:00,
2013-02-21 23:05:00,38.3,19.7,26.62,SSE,158,6.0,13.4,47,0.00,,,0.00,WUHU216HW,2013-02-22 04:05:00,
2013-02-21 23:10:00,38.1,20.0,26.62,SSW,203,5.8,13.4,48,0.00,,,0.00,WUHU216HW,2013-02-22 04:10:00,
2013-02-21 23:15:00,37.9,19.9,26.62,South,180,0.0,8.2,48,0.00,,,0.00,WUHU216HW,2013-02-22 04:15:00,
2013-02-21 23:20:00,37.5,20.1,26.62,SSE,158,8.5,8.5,49,0.00,,,0.00,WUHU216HW,2013-02-22 04:20:00,
2013-02-21 23:25:00,37.2,20.3,26.62,SE,135,9.1,12.3,50,0.00,,,0.00,WUHU216HW,2013-02-22 04:25:00,
2013-02-21 23:30:00,37.0,20.4,26.62,SSW,203,6.9,12.3,51,0.00,,,0.00,WUHU216HW,2013-02-22 04:30:00,
2013-02-21 23:35:00,36.6,20.6,26.62,SSE,158,4.6,9.6,52,0.00,,,0.00,WUHU216HW,2013-02-22 04:35:00,
2013-02-21 23:40:00,36.3,21.2,26.62,SSE,158,6.2,10.2,54,0.00,,,0.00,WUHU216HW,2013-02-22 04:40:00,
2013-02-21 23:45:00,35.9,21.3,26.61,South,180,1.1,11.8,55,0.00,,,0.00,WUHU216HW,2013-02-22 04:45:00,
2013-02-21 23:50:00,35.7,21.6,26.61,SSE,158,10.9,11.8,56,0.00,,,0.00,WUHU216HW,2013-02-22 04:50:00,
2013-02-21 23:55:00,35.4,22.5,26.61,SE,135,17.4,17.4,59,0.00,,,0.00,WUHU216HW,2013-02-22 04:55:00,